Regional Weather Roundup
Issued by NWS

Home | Current Version | Previous Version | Graphics & Text | Print | Product List | Glossary Off
Versions: 1 2 3 4 5 6 7 8 9 10 11 12 13 14 15 16 17 18 19 20 21 22 23 24 25 26 27 28 29 30 31 32 33 34 35 36 37 38 39 40 41 42 43 44 45 46 47 48 49 50

178
ASUS43 KMKX 241900
RWRWI

WISCONSIN REGIONAL WEATHER ROUNDUP
NATIONAL WEATHER SERVICE MILWAUKEE/SULLIVAN WI
200 PM CDT THU MAY 24 2018

NOTE: "FAIR" INDICATES FEW OR NO CLOUDS BELOW 12,000 FEET WITH NO
SIGNIFICANT WEATHER AND/OR OBSTRUCTIONS TO VISIBILITY.

WIZ001-002-006>008-014>016-023>028-242000-
NORTHWEST WISCONSIN

CITY           SKY/WX    TMP DP  RH WIND       PRES   REMARKS
SUPERIOR ARPT  CLOUDY    53  51  94 CALM      30.01F FOG
ASHLAND        FAIR      79  67  66 S6        30.00F HX  81
HAYWARD        FAIR      79  67  66 SE8       30.01F HX  81
SIREN          FAIR      84  65  52 SE9       29.97F HX  85
CUMBERLAND     PTSUNNY   82  61  47 S18G25    30.00F HX  83
RICE LAKE      FAIR      86  62  44 S12G17    30.01F HX  87
CHETEK         FAIR      87  66  49 S9G20     30.00F HX  88
LADYSMITH      FAIR      83  65  55 S12       30.05F HX  84
EAU CLAIRE     NOT AVBL
MENOMONIE      FAIR      88  64  44 S9G23     30.00F HX  89
NEW RICHMOND   PTSUNNY   85  60  42 S17       29.98F HX  85
OSCEOLA        FAIR      88  61  39 S12G25    29.99F HX  88
$$

WIZ003>005-009-010-017-018-242000-
NORTH CENTRAL WISCONSIN

CITY           SKY/WX    TMP DP  RH WIND       PRES   REMARKS
MANITOWISH WTR FAIR      76  68  75 S6        30.06F
ARBOR VITAE    FAIR      80  65  61 S10       30.08F HX  82
WOODRUFF       FAIR      80  65  61 S10       30.08F HX  82
RHINELANDER    PTSUNNY   83  64  52 S8        30.08F HX  84
EAGLE RIVER    FAIR      76  60  57 SW7       30.08F
LAND O LAKES   FAIR      71  66  82 S3        30.11F
PHILLIPS       FAIR      80  66  62 SE8       30.05F HX  82
TOMAHAWK       PTSUNNY   79  63  57 SW6       30.09S HX  81
MEDFORD        PTSUNNY   81  64  57 S12G17    30.07F HX  82
MERRILL        CLOUDY    83  65  55 SW12      30.08F HX  84
$$

WIZ029-030-035-036-043>047-242000-
CENTRAL WISCONSIN

CITY           SKY/WX    TMP DP  RH WIND       PRES   REMARKS
WAUSAU         PTSUNNY   81  62  52 S10       30.06F HX  82
MOSINEE        PTSUNNY   81  64  57 S10       30.09F HX  82
MARSHFIELD     PTSUNNY   83  64  52 SW10      30.06F HX  84
STEVENS POINT  PTSUNNY   82  61  49 S10G16    30.09F HX  82
WAUPACA        FAIR      86  60  41 S7        30.09F HX  85
WAUTOMA        FAIR      85  63  47 S13G20    30.08F HX  86
WISC RAPIDS    FAIR      86  60  41 SW13      30.08F HX  86
CAMP DOUGLAS   NOT AVBL
$$

WIZ011>013-019>022-031-037>040-048>050-242000-
NORTHEAST WISCONSIN

CITY           SKY/WX    TMP DP  RH WIND       PRES   REMARKS
ANTIGO         PTSUNNY   83  62  48 S14G20    30.10F HX  83
SHAWANO        FAIR      85  60  42 SW6       30.08F HX  85
OCONTO         FAIR      84  56  38 S13       30.08F HX  83
STURGEON BAY   FAIR      77  55  46 S13       30.10F
GREEN BAY      FAIR      83  58  42 SW10      30.09F HX  83
MANITOWOC      FAIR      68  54  60 SE9       30.12F
APPLETON       MOSUNNY   82  55  39 S12       30.08F HX  82
CLINTONVILLE   FAIR      85  57  37 SW10      30.08F HX  84
OSHKOSH        FAIR      82  62  50 S9        30.09F HX  83
$$

WIZ032>034-041-042-053>061-242000-
SOUTHWEST WISCONSIN

CITY           SKY/WX    TMP DP  RH WIND       PRES   REMARKS
LA CROSSE      FAIR      87  67  51 S13       30.03F HX  90
SPARTA         PTSUNNY   83  65  54 S9G17     30.07F HX  84
VIROQUA        PTSUNNY   83  66  56 S9        30.09F HX  85
BOSCOBEL       FAIR      87  66  49 SW7       30.07F HX  89
PRAIRIE DU CHI FAIR      84  63  48 S8        30.06F HX  85
PLATTEVILLE    FAIR      82  66  58 SW9       30.12F HX  84
$$

WIZ056-057-062-063-064-067-068-242000-
SOUTH CENTRAL WISCONSIN

CITY           SKY/WX    TMP DP  RH WIND       PRES   REMARKS
REEDSBURG      FAIR      83  64  51 S7G16     30.09F HX  85
BARABOO/DELLS  FAIR      84  56  38 S10       30.09F HX  83
LONE ROCK      NOT AVBL
MINERAL POINT  FAIR      84  59  42 S8        30.11F HX  84
MADISON        PTSUNNY   84  61  45 S14       30.09F HX  84
MIDDLETON      FAIR      85  60  43 SW10      30.11F HX  85
WATERTOWN      FAIR      83  59  44 SW10      30.11F HX  83
MONROE         FAIR      82  55  39 S14       30.13S HX  82
JANESVILLE     MOSUNNY   86  55  35 S8        30.11F HX  84
$$

WIZ051-052-058>065-066-070>072-242000-
SOUTHEAST WISCONSIN

CITY           SKY/WX    TMP DP  RH WIND       PRES   REMARKS
MILWAUKEE      PTSUNNY   79  61  53 SE14      30.12F HX  80
WAUKESHA       SUNNY     81  55  41 S8        30.14F HX  80
MILWAUKEE/TIMM SUNNY     82  48  30 S5        30.12F HX  81
RACINE         FAIR      76  55  48 S15       30.15F
BURLINGTON     FAIR      83  56  39 SW7       30.13F HX  82
KENOSHA        FAIR      81  58  45 SE14      30.13F HX  81
FOND DU LAC    FAIR      82  59  45 SW12      30.10F HX  82
SHEBOYGAN      FAIR      77  57  50 S9        30.12F
WEST BEND      FAIR      81  55  41 S5        30.12F HX  80
JUNEAU         FAIR      81  58  45 S8        30.13F HX  81
$$

LSZ147-162-242000-
LAKE SUPERIOR

STATION/POSITION TIME  TEMP    WIND        PRES    WAVE
                       AIR SEA DIR/SP/G            HT/PER
                 (UTC) (F)     (DEG/KT/KT) (MB)    (FT/S)
W MID LAKE BUOY  1750   43 36   90/  4/  4 1017.8F   0
DEVILS ISLAND    1800   45      90/  7/  8 1017.3F
SAXON HARBOR     1840          320/  5/  7 1015.6F
$$

LMZ867-665-643>646-242000-
LAKE MICHIGAN

STATION/POSITION TIME  TEMP    WIND        PRES    WAVE
                       AIR SEA DIR/SP/G            HT/PER
                 (UTC) (F)     (DEG/KT/KT) (MB)    (FT/S)
N MID LAKE BUOY  1840   43 37  190/  8/ 10 1019.9F
NORTHPORT PIER   1840   63     160/  3/  6 1019.3F
KEWAUNEE LAKESHO 1830   51     170/ 13/ 14 1019.5F
SHEBOYGAN LAKESH 1800   49     160/ 14/ 15 1020.7F
PORT WASHINGTON  1830   56     130/  4/  4 1021.3F
ATWATER BUOY     1807   54 51  180/  8/  8 1020.6    1/ 2
MILWAUKEE LAKESH 1830   55     140/  7/  8   N/A
S MID LAKE BUOY  1750   49 40  160/  8/  8 1022.2F   0
KENOSHA   LAKESH 1800   59                 1020.7
$$

TC  - TEMPERATURE IN CELSIUS
VSB - VISIBILITY IN STATUTE MILES
WCI - WIND CHILL INDEX
HX  - HEAT INDEX





USA.gov is the U.S. government's official web portal to all federal, state and local government web resources and services.